SL-8 R/B

Satellite information

Favourite Embed

Satellite Type and Status

ROCKET BODYIN ORBIT

Key statistics

Satellite SL-8 R/B at a glance.

Uptime

15587

Days in orbit

Revolutions

≈ 14.4

Per day

Orbit

LEO

Low Earth Orbit

Inclination

74.1

Latest

Satellite identification and parameters

Extended collection of information and parameters for SL-8 R/B.

Object identification

Identified? True

Debris? False

Object name: SL-8 R/B

International designator: 1983-031B

Object number (NORAD): 13992

Object ID (CCSDS): 13992

Country: COMMONWEALTH OF INDEPENDENT STATES (CIS)

Current information (Y/N): Y

RCS size: LARGE

Orbital parameters

Period: 100.174 minutes

Inclination: 74.0533 deg

SMA: 7144.924 km

Apoapsis: 770.485 km

Periapsis: 763.094 km

RAAN: 77.8094 deg

Eccentricy: 0.0005172

Argument of periapsis: 353.8348 deg

Mean anomaly: 6.2741 deg

Mean motion: 14.37494856 rev/day

Mean motion (dot): 0.00000435 rev/day2

B* drag term: 0.00015406326 1/REarth

Two-line elements (TLE)

Creation date: Dec. 12, 2025, 10:14 a.m.

Reference frame: TEME

Reference center: EARTH

Epoch: Dec. 12, 2025, 6:26 a.m. UTC

TLE line 0: 0 SL-8 R/B

TLE line 1: 1 13992U 83031B 25346.26827409 .00000435 00000-0 15406-3 0 9998

TLE line 2: 2 13992 74.0533 77.8094 0005172 353.8348 6.2741 14.37494856233652

Live tracking on map

Real-time ground track for satellite SL-8 R/B.

In-orbit conjunctions

A list of the most updated potential collisions computed for object SL-8 R/B.

Target Orbit TCA Probability of collision Miss distance Type
COSMOS 1867 COOLANT LEO 2025-10-23 22:01:56 0.0001094264 186.0 (m) DEBRIS
CZ-6A DEB LEO 2025-03-30 06:19:35 0.0001952278 209.0 (m) DEBRIS
DMSP 5D-3 F18 DEB SSO 2025-01-02 22:46:51 0.0001122808 808.0 (m) DEBRIS
FENGYUN 1C DEB SSO 2024-12-23 18:54:01 0.0001459818 740.0 (m) DEBRIS
CZ-6A DEB LEO 2024-12-06 09:17:02 0.000600865 740.0 (m) DEBRIS

Associated space launch

Military communications satellite

SL-8 R/B was lifted into orbit during the mission ‘Kosmos-3M | Strela-2M 31’, on board a Kosmos-3M space rocket.

The launch took place on April 12, 1983, 6:20 p.m. from 132/2.

For more information about the launch, click the button.

Launch to space Kosmos-3M | Strela-2M 31
Kosmos-3M | Strela-2M 31

Agency: N/A

Status: Launch Successful

Launch date: April 12, 1983, 6:20 p.m. UTC

Rocket: Kosmos-3M

Launch pad: 132/2

Location: Plesetsk Cosmodrome, Russian Federation

...

Latest news about this satellite

There are no fresh news available about this satellite. Check back as we update our databases every day.


Newsletter sign-up

Weekly statistics, charts and insights to help you stay on top of the space industry.